STARLINK-34663 (64807 NORAD) Tracking and Keplerian Element Data

This shows tracking and keplerian element data for the satellite.

Feedback or suggestion? Click here.




ElementValue
Catalog64807
NameSTARLINK-34663
Epoch Orbit590
Epoch Day354.25003472
Epoch Year2025
RAAN334.8673
Inclination70.0003
Eccentricity0.0003139
Argument of Perigee272.1986
Mean Anonmoly118.6748
Mean Motion14.99124679
Decay Rate0.0001
L11 64807U 25150T 25354.25003472 .00010000 00000+0 82751-3 0 9996
L22 64807 70.0003 334.8673 0003139 272.1986 118.6748 14.99124679 5903



Live tracking and technical data element details for STARLINK-34663 (NORAD 64807). STARLINK-34663 can be tracked NOW for your location showing map with azimuth and elevation plus other details from your city location.







IsCatalogInMostPopularTable: catalog: 64807, numindb: 11
Update: records affected: 1



GetName: 64807 STARLINK-34663

Hit Count: updated at: Tue, 21 Apr 2026 20:10:05 GMT